| time (UTC) | temp F | wind direction | speed knots | gust knots | rain 1hr in | rain 24hr in | rain mn in | humidity % | barometer mb |
| 20260502160355 | 68 | 19 | 0.0 | 0.0 | 0.00 | 0.00 | 0.00 | 43 | 1013.7 |
| 20260502151837 | 69 | 19 | 0.0 | 0.0 | 0.00 | 0.00 | 0.00 | 41 | 1013.9 |
| 20260502130334 | 72 | 19 | 0.0 | 0.0 | 0.00 | 0.00 | 0.00 | 38 | 1013.5 |
| 20260502123328 | 73 | 19 | 0.0 | 0.0 | 0.00 | 0.00 | 0.00 | 36 | 1013.1 |
| 20260502121837 | 73 | 19 | 0.0 | 0.0 | 0.00 | 0.00 | 0.00 | 35 | 1013.0 |
| 20260502120341 | 74 | 19 | 0.0 | 0.0 | 0.00 | 0.00 | 0.00 | 33 | 1012.8 |
| 20260502114819 | 74 | 19 | 0.0 | 0.0 | 0.00 | 0.00 | 0.00 | 32 | 1012.6 |
| 20260502113326 | 74 | 19 | 0.0 | 0.0 | 0.00 | 0.00 | 0.00 | 31 | 1012.4 |
| 20260502111833 | 74 | 19 | 0.0 | 0.0 | 0.00 | 0.00 | 0.00 | 31 | 1011.9 |
| 20260502110319 | 75 | 19 | 0.0 | 0.0 | 0.00 | 0.00 | 0.00 | 31 | 1011.9 |
| 20260502104823 | 75 | 19 | 0.0 | 0.0 | 0.00 | 0.00 | 0.00 | 30 | 1011.4 |
| 20260502103355 | 75 | 19 | 0.0 | 0.0 | 0.00 | 0.00 | 0.00 | 31 | 1011.4 |
| 20260502101820 | 76 | 19 | 0.0 | 0.0 | 0.00 | 0.00 | 0.00 | 30 | 1011.3 |
| 20260502100327 | 76 | 5 | 0.0 | 0.0 | 0.00 | 0.00 | 0.00 | 29 | 1011.1 |
| 20260502090352 | 78 | 103 | 0.0 | 0.0 | 0.00 | 0.00 | 0.00 | 28 | 1010.3 |
| 20260502070338 | 81 | 188 | 0.0 | 0.9 | 0.00 | 0.00 | 0.00 | 32 | 1009.0 |
| 20260502064821 | 81 | 151 | 0.0 | 0.9 | 0.00 | 0.00 | 0.00 | 33 | 1008.7 |
| 20260502063328 | 83 | 74 | 0.0 | 0.9 | 0.00 | 0.00 | 0.00 | 31 | 1008.5 |
| 20260502061853 | 82 | 287 | 0.0 | 0.9 | 0.00 | 0.00 | 0.00 | 24 | 1008.2 |
| 20260502060339 | 83 | 294 | 0.0 | 0.9 | 0.00 | 0.00 | 0.00 | 24 | 1008.1 |
| 20260502054821 | 83 | 341 | 0.0 | 0.0 | 0.00 | 0.00 | 0.00 | 25 | 1007.9 |
| 20260502053326 | 83 | 103 | 0.0 | 0.9 | 0.00 | 0.00 | 0.00 | 25 | 1007.9 |
| 20260502051829 | 82 | 255 | 0.0 | 0.9 | 0.00 | 0.00 | 0.00 | 25 | 1007.7 |
| 20260502050335 | 82 | 346 | 0.0 | 0.9 | 0.00 | 0.00 | 0.00 | 24 | 1007.6 |
| 20260502044834 | 82 | 57 | 0.0 | 3.5 | 0.00 | 0.04 | 0.00 | 25 | 1007.5 |
| 20260502043341 | 82 | 339 | 0.0 | 7.0 | 0.00 | 0.04 | 0.00 | 25 | 1007.3 |
| 20260502041819 | 81 | 94 | 0.0 | 0.9 | 0.00 | 0.04 | 0.00 | 26 | 1007.2 |
| 20260502040346 | 80 | 114 | 0.0 | 0.0 | 0.00 | 0.04 | 0.00 | 26 | 1007.2 |
| 20260502034833 | 80 | 315 | 0.0 | 8.7 | 0.00 | 0.12 | 0.00 | 25 | 1007.1 |
| 20260502033321 | 80 | 279 | 0.0 | 8.7 | 0.00 | 0.12 | 0.00 | 27 | 1006.9 |
| 20260502031827 | 80 | 214 | 0.0 | 5.2 | 0.00 | 0.12 | 0.00 | 28 | 1006.7 |
| 20260502030352 | 79 | 24 | 0.0 | 0.0 | 0.00 | 0.12 | 0.00 | 29 | 1006.6 |
| 20260502024837 | 79 | 285 | 0.0 | 4.3 | 0.00 | 0.31 | 0.00 | 29 | 1006.4 |
| 20260502023318 | 79 | 320 | 0.0 | 8.7 | 0.00 | 0.31 | 0.00 | 29 | 1006.3 |
| 20260502021825 | 78 | 290 | 0.0 | 0.9 | 0.00 | 0.31 | 0.00 | 29 | 1006.2 |
| 20260502020352 | 78 | 240 | 0.0 | 8.7 | 0.00 | 0.31 | 0.00 | 29 | 1005.9 |
| 20260502014833 | 77 | 330 | 0.0 | 0.9 | 0.00 | 0.59 | 0.00 | 30 | 1005.7 |
| 20260502013339 | 77 | 331 | 0.0 | 10.4 | 0.00 | 0.59 | 0.00 | 31 | 1005.5 |
| 20260502011820 | 77 | 269 | 0.0 | 2.6 | 0.00 | 0.59 | 0.00 | 32 | 1005.6 |
| 20260502010322 | 76 | 113 | 0.0 | 0.0 | 0.00 | 0.59 | 0.00 | 37 | 1005.6 |
| 20260502004825 | 75 | 326 | 0.0 | 0.9 | 0.00 | 1.89 | 0.00 | 40 | 1005.6 |
| 20260502003347 | 74 | 167 | 0.0 | 0.0 | 0.00 | 1.89 | 0.00 | 42 | 1005.4 |
| 20260502001830 | 74 | 91 | 0.0 | 0.0 | 0.00 | 1.89 | 0.00 | 43 | 1005.3 |
| 20260502000334 | 73 | 95 | 0.0 | 0.0 | 0.00 | 1.89 | 0.00 | 43 | 1005.4 |
| 20260501234839 | 72 | 143 | 0.0 | 1.7 | 0.00 | 3.23 | 0.00 | 43 | 1005.3 |
| 20260501233317 | 72 | 266 | 0.0 | 0.0 | 0.00 | 3.23 | 0.00 | 42 | 1005.1 |
| 20260501231819 | 70 | 173 | 0.0 | 0.0 | 0.00 | 3.23 | 0.00 | 43 | 1004.7 |
| 20260501230328 | 70 | 153 | 0.0 | 0.9 | 0.00 | 3.23 | 0.00 | 46 | 1004.5 |
| 20260501224832 | 69 | 242 | 0.0 | 0.0 | 0.00 | 4.17 | 0.00 | 49 | 1004.3 |
| 20260501223335 | 67 | 193 | 0.0 | 0.0 | 0.00 | 4.17 | 0.00 | 51 | 1004.0 |
| 20260501221817 | 66 | 193 | 0.0 | 0.0 | 0.00 | 4.17 | 0.00 | 53 | 1003.8 |
| 20260501220317 | 64 | 283 | 0.0 | 0.0 | 0.00 | 4.17 | 0.00 | 54 | 1003.7 |
| 20260501214819 | 63 | 284 | 0.0 | 0.0 | 0.00 | 4.80 | 0.00 | 57 | 1003.4 |
| 20260501213322 | 62 | 282 | 0.0 | 0.9 | 0.00 | 4.80 | 0.00 | 58 | 1003.1 |
| 20260501211826 | 62 | 250 | 0.0 | 0.0 | 0.00 | 4.80 | 0.00 | 58 | 1002.7 |
| 20260501210332 | 63 | 281 | 0.0 | 0.0 | 0.00 | 4.80 | 0.00 | 59 | 1002.6 |
| 20260501204835 | 63 | 297 | 0.0 | 0.0 | 0.00 | 4.92 | 0.00 | 58 | 1002.3 |
| 20260501203401 | 63 | 308 | 0.0 | 1.7 | 0.00 | 4.92 | 0.00 | 58 | 1001.9 |
| 20260501201820 | 62 | 275 | 0.0 | 0.0 | 0.00 | 4.92 | 0.00 | 59 | 1001.6 |
| 20260501200344 | 61 | 249 | 0.0 | 0.0 | 0.00 | 4.92 | 0.00 | 62 | 1001.1 |
| 20260501194830 | 60 | 75 | 0.0 | 0.0 | 0.00 | 5.59 | 0.00 | 64 | 1000.8 |
| 20260501193359 | 60 | 309 | 0.0 | 0.0 | 0.00 | 5.59 | 0.00 | 66 | 1000.4 |
| 20260501191818 | 60 | 302 | 0.0 | 0.0 | 0.00 | 5.59 | 0.00 | 68 | 1000.1 |
| 20260501190323 | 60 | 172 | 0.0 | 0.0 | 0.00 | 5.59 | 0.00 | 69 | 999.7 |
| 20260501184850 | 60 | 163 | 0.0 | 0.0 | 0.00 | 6.14 | 0.00 | 69 | 999.2 |
| 20260501183335 | 60 | 326 | 0.0 | 0.0 | 0.00 | 6.14 | 0.00 | 69 | 998.8 |
| 20260501181817 | 60 | 254 | 0.0 | 0.0 | 0.00 | 6.14 | 0.00 | 68 | 998.4 |
| 20260501180342 | 60 | 250 | 0.0 | 0.9 | 0.00 | 6.14 | 0.00 | 68 | 997.9 |
| 20260501174835 | 60 | 255 | 0.0 | 0.9 | 0.00 | 6.22 | 0.00 | 68 | 997.8 |
| 20260501173340 | 60 | 244 | 0.0 | 0.9 | 0.00 | 6.22 | 0.00 | 68 | 997.4 |
| 20260501171823 | 60 | 169 | 0.0 | 1.7 | 0.00 | 6.22 | 0.00 | 68 | 997.1 |
| 20260501170331 | 60 | 171 | 0.0 | 1.7 | 0.00 | 6.22 | 0.00 | 69 | 996.9 |
| 20260501164820 | 60 | 178 | 0.0 | 0.9 | 0.00 | 6.42 | 0.00 | 70 | 996.9 |
| 20260501163327 | 59 | 285 | 0.0 | 0.0 | 0.00 | 6.42 | 0.00 | 73 | 996.8 |
| 20260501161837 | 59 | 149 | 0.0 | 0.0 | 0.00 | 6.42 | 0.00 | 75 | 996.9 |